sat.trackr.live / text

‹ back to catalog

LEMUR-2 FIKRETDENGIZ

NORAD 67363 · 2026-004A

PAYLOAD ACTIVE UNKNOWN

§ Identity

Operator
Country
US
Launch date
2026-01-11
Launch site
AFWTR
Launch vehicle
Mass (kg)
RCS (m²)

Purposes: earth_obs

External: N2YO · Heavens-Above · Gunter

§ Orbital elements

Epoch: 2026-05-25T00:07:48.516960Z

Period
96.77 min
Inclination
97.8015°
Eccentricity
0.0007834
Mean motion
14.88127296 rev/d
Perigee alt
598.3 km
Apogee alt
609.3 km
Semi-major
6,981.9 km
B*
4.0904e-4
RAAN
143.9241°
Arg perigee
205.9096°
Mean anomaly
154.1729°
Rev number
1,983

§ Raw data

LEMUR-2 FIKRETDENGIZ1 67363U 26004A   26145.00542265  .00003714  00000+0  40904-3 0  99932 67363  97.8015 143.9241 0007834 205.9096 154.1729 14.88127296 19832

JSON: /api/v1/satellites/67363 · /tle

For live sub-satellite position, see the globe view (requires WebGL).

§ Visibility from observer

Set your observer location to see the next 7 days of passes ≥ 10°. The values pass through the URL so the page stays shareable.

No JS? Fill the form by hand. The geolocation button needs JavaScript.